Date String (YYYY-MM-DD hh:mm:ss) UTC,Instrument flags,absolute air pressure of the measurement (hPa),sample flow rate (lpm),inlet stack bypass flow (lpm),air temperature of the measurement (°C),ambient temperature measured by the external sensor (°C),aerosol sample conditioner tube jacket temperature (°C),OPC LED temperature (°C),internal box temperature (°C),relative humidity of the measurement (%),span deviation,mass concentration of particles derived from Lorenz-Mie calculation of OPC scattering (μg/m³),mass concentration of particles derived from Lorenz-Mie calculation of OPC scattering (μg/m³),mass concentration of particles derived from Lorenz-Mie calculation of OPC scattering (μg/m³)
DateTimeUTC,F1_M11,P_M11,Q1_M11,Q2_M11,T1_M11,T2_M11,T3_M11,T4_M11,T5_M11,U1_M11,ZSPAN_M11,X0_M11,X2_M11,X1_M11
2024-02-11 11:00:00,SystemResetWarning,0828.3,4.99,000.00,018.2,017.6,000.0,026.9,020.0,17.2,0000.0,0007.70,0005.48,0005.40
2024-02-11 11:01:00,SystemResetWarning,0828.3,5.00,000.00,018.3,017.8,000.0,027.0,020.2,17.2,0000.0,0007.69,0005.48,0005.40
2024-02-11 11:02:00,SystemResetWarning,0828.4,5.01,000.00,018.4,018.6,000.0,027.1,020.6,17.0,0000.0,0007.22,0005.47,0005.39
2024-02-11 11:03:00,SystemResetWarning,0828.4,5.01,000.00,018.6,018.9,000.0,027.1,020.8,16.8,0000.0,0007.42,0005.48,0005.39
2024-02-11 11:04:00,SystemResetWarning,0828.4,4.99,000.00,018.6,018.8,000.0,027.0,020.6,16.7,0000.0,0007.48,0005.47,0005.39
2024-02-11 11:05:00,SystemResetWarning,0828.3,4.99,000.00,018.6,018.6,000.0,026.9,020.4,16.8,0000.0,0007.23,0005.45,0005.38
2024-02-11 11:06:00,SystemResetWarning,0828.3,5.00,000.00,018.6,018.5,000.0,026.9,020.3,16.7,0000.0,0007.28,0005.46,0005.37
2024-02-11 11:07:00,SystemResetWarning,0828.3,5.01,000.00,018.5,018.3,000.0,026.9,020.2,16.7,0000.0,0007.27,0005.45,0005.37
2024-02-11 11:08:00,SystemResetWarning,0828.3,4.99,000.00,018.5,018.2,000.0,026.9,020.1,16.8,0000.0,0007.28,0005.47,0005.38
2024-02-11 11:09:00,SystemResetWarning,0828.3,5.00,000.00,018.4,018.1,000.0,026.8,020.0,16.8,0000.0,0007.33,0005.49,0005.39
2024-02-11 11:10:00,SystemResetWarning,0828.3,4.99,000.00,018.4,018.0,000.0,026.9,020.0,16.9,0000.0,0007.35,0005.50,0005.40
2024-02-11 11:11:00,SystemResetWarning,0828.4,5.01,000.00,018.4,017.9,000.0,026.9,020.0,16.9,0000.0,0007.33,0005.49,0005.39
2024-02-11 11:12:00,SystemResetWarning,0828.3,5.01,000.00,018.4,017.8,000.0,026.9,020.0,16.9,0000.0,0007.35,0005.47,0005.39
2024-02-11 11:13:00,SystemResetWarning,0828.3,5.00,000.00,018.3,017.7,000.0,026.9,020.0,16.8,0000.0,0007.42,0005.48,0005.39
2024-02-11 11:14:00,SystemResetWarning,0828.2,5.00,000.00,018.3,017.6,000.0,027.0,020.0,16.8,0000.0,0007.07,0005.48,0005.40
2024-02-11 11:15:00,SystemResetWarning,0828.2,4.99,000.00,018.3,017.6,000.0,027.0,020.0,16.9,0000.0,0006.73,0005.48,0005.41
2024-02-11 11:16:00,SystemResetWarning,0828.3,4.99,000.00,018.3,017.5,000.0,027.0,020.0,16.9,0000.0,0006.79,0005.49,0005.41
2024-02-11 11:17:00,SystemResetWarning,0828.4,5.00,000.00,018.3,017.5,000.0,027.0,020.0,16.9,0000.0,0006.71,0005.48,0005.42
2024-02-11 11:18:00,SystemResetWarning,0828.3,5.01,000.00,018.3,017.5,000.0,027.0,020.0,16.9,0000.0,0006.72,0005.51,0005.45
2024-02-11 11:19:00,SystemResetWarning,0828.3,5.00,000.00,018.3,017.7,000.0,027.0,020.1,16.8,0000.0,0006.83,0005.57,0005.52
2024-02-11 11:20:00,SystemResetWarning,0828.3,5.00,000.00,018.5,018.5,000.0,027.1,020.6,16.6,0000.0,0006.93,0005.64,0005.60
2024-02-11 11:21:00,SystemResetWarning,0828.2,4.98,000.00,018.7,019.0,000.0,027.1,020.8,16.4,0000.0,0007.03,0005.71,0005.66
2024-02-11 11:22:00,SystemResetWarning,0828.2,4.99,000.00,018.7,018.8,000.0,027.0,020.6,16.3,0000.0,0007.16,0005.77,0005.72
2024-02-11 11:23:00,SystemResetWarning,0828.2,5.01,000.00,018.6,018.6,000.0,027.0,020.3,16.4,0000.0,0007.22,0005.83,0005.77
2024-02-11 11:24:00,SystemResetWarning,0828.2,5.00,000.00,018.5,018.4,000.0,026.9,020.1,16.4,0000.8,0007.27,0005.90,0005.83
2024-02-11 11:25:00,SystemResetWarning,0828.2,4.99,000.00,018.5,018.2,000.0,026.9,020.0,16.4,0000.5,0007.32,0005.94,0005.87
2024-02-11 11:26:00,SystemResetWarning,0828.2,4.99,000.00,018.4,018.1,000.0,026.9,020.0,16.4,0000.0,0007.36,0005.99,0005.93
2024-02-11 11:27:00,SystemResetWarning,0828.2,4.99,000.00,018.4,017.9,000.0,027.0,020.0,16.5,0000.0,0007.40,0006.04,0005.98
2024-02-11 11:28:00,SystemResetWarning,0828.2,5.00,000.00,018.4,017.8,000.0,027.0,020.0,16.5,0000.0,0007.44,0006.09,0006.03
2024-02-11 11:29:00,SystemResetWarning,0828.2,5.00,000.00,018.3,017.7,000.0,027.0,020.0,16.5,0000.0,0007.45,0006.11,0006.05
2024-02-11 11:30:00,SystemResetWarning,0828.2,5.01,000.00,018.3,017.6,000.0,027.0,020.0,16.4,0000.0,0007.43,0006.09,0006.03
2024-02-11 11:31:00,SystemResetWarning,0828.2,5.00,000.00,018.3,017.5,000.0,027.0,020.0,16.4,0000.0,0007.41,0006.06,0005.99
2024-02-11 11:32:00,SystemResetWarning,0828.2,4.99,000.00,018.3,017.5,000.0,027.0,020.0,16.4,0000.0,0007.43,0006.04,0005.97
2024-02-11 11:33:00,SystemResetWarning,0828.2,5.00,000.00,018.3,017.4,000.0,027.0,020.0,16.4,0000.0,0007.42,0006.03,0005.97
2024-02-11 11:34:00,SystemResetWarning,0828.2,4.99,000.00,018.3,017.4,000.0,027.0,020.0,16.4,0000.0,0007.84,0006.06,0005.99
2024-02-11 11:35:00,SystemResetWarning,0828.2,5.00,000.00,018.3,017.4,000.0,027.0,020.0,16.4,0000.0,0008.11,0006.07,0005.99
2024-02-11 11:36:00,SystemResetWarning,0828.2,5.01,000.00,018.3,017.6,000.0,027.1,020.1,16.4,0000.0,0008.16,0006.10,0006.00
2024-02-11 11:37:00,SystemResetWarning,0828.2,5.01,000.00,018.4,018.3,000.0,027.1,020.6,16.3,0000.0,0008.27,0006.14,0006.04
2024-02-11 11:38:00,SystemResetWarning,0828.3,4.99,000.00,018.6,018.8,000.0,027.1,020.8,16.0,0000.0,0008.33,0006.18,0006.06
2024-02-11 11:39:00,SystemResetWarning,0828.2,4.99,000.00,018.7,018.7,000.0,027.0,020.6,15.8,0000.0,0008.39,0006.23,0006.11
2024-02-11 11:40:00,SystemResetWarning,0828.2,5.00,000.00,018.6,018.5,000.0,027.0,020.3,15.6,0000.0,0008.43,0006.26,0006.15
2024-02-11 11:41:00,SystemResetWarning,0828.2,5.00,000.00,018.5,018.4,000.0,026.9,020.1,15.5,0000.0,0008.46,0006.31,0006.18
2024-02-11 11:42:00,SystemResetWarning,0828.2,5.01,000.00,018.5,018.2,000.0,026.9,020.0,15.6,0000.0,0008.55,0006.36,0006.23
2024-02-11 11:43:00,SystemResetWarning,0828.2,5.00,000.00,018.4,018.0,000.0,026.9,020.0,15.5,0000.0,0008.56,0006.38,0006.24
2024-02-11 11:44:00,SystemResetWarning,0828.1,5.00,000.00,018.4,017.9,000.0,026.9,020.0,15.5,0000.0,0008.53,0006.36,0006.22
2024-02-11 11:45:00,SystemResetWarning,0828.2,5.00,000.00,018.4,017.8,000.0,026.9,020.0,15.5,0000.0,0008.05,0006.26,0006.14
2024-02-11 11:46:00,SystemResetWarning,0828.2,5.00,000.00,018.3,017.7,000.0,027.0,020.0,15.4,0000.0,0007.68,0006.18,0006.07
2024-02-11 11:47:00,SystemResetWarning,0828.2,4.99,000.00,018.3,017.6,000.0,027.0,020.0,15.3,0000.0,0007.69,0006.16,0006.03
2024-02-11 11:48:00,SystemResetWarning,0828.2,5.00,000.00,018.3,017.5,000.0,027.0,020.0,15.1,0000.0,0007.57,0006.08,0005.96
2024-02-11 11:49:00,SystemResetWarning,0828.2,5.00,000.00,018.3,017.5,000.0,027.0,020.0,15.1,0000.0,0007.51,0006.02,0005.91
2024-02-11 11:50:00,SystemResetWarning,0828.2,5.00,000.00,018.3,017.4,000.0,027.0,020.0,15.1,0000.0,0007.46,0005.96,0005.86
2024-02-11 11:51:00,SystemResetWarning,0828.2,5.00,000.00,018.3,017.4,000.0,027.0,020.0,15.1,0000.0,0007.41,0005.89,0005.79
2024-02-11 11:52:00,SystemResetWarning,0828.2,5.01,000.00,018.3,017.4,000.0,027.0,020.0,15.2,0000.0,0007.34,0005.80,0005.70
2024-02-11 11:53:00,SystemResetWarning,0828.2,5.00,000.00,018.3,017.9,000.0,027.1,020.3,15.3,0000.0,0007.11,0005.67,0005.59
2024-02-11 11:54:00,SystemResetWarning,0828.3,4.99,000.00,018.5,018.7,000.0,027.1,020.8,15.2,0000.0,0006.99,0005.59,0005.51
2024-02-11 11:55:00,SystemResetWarning,0828.2,4.99,000.00,018.7,018.8,000.0,027.1,020.7,15.0,0000.0,0007.05,0005.58,0005.48
2024-02-11 11:56:00,SystemResetWarning,0828.1,4.99,000.00,018.6,018.6,000.0,027.0,020.4,15.1,0000.0,0007.11,0005.58,0005.48
2024-02-11 11:57:00,SystemResetWarning,0828.2,5.01,000.00,018.5,018.4,000.0,027.0,020.2,15.2,0000.0,0007.17,0005.60,0005.50
2024-02-11 11:58:00,SystemResetWarning,0828.2,5.01,000.00,018.5,018.2,000.0,026.9,020.0,15.1,0000.0,0007.11,0005.61,0005.51
2024-02-11 11:59:00,SystemResetWarning,0828.2,5.01,000.00,018.4,018.1,000.0,026.9,020.0,14.9,0000.0,0007.33,0005.65,0005.55
